Hourly Weather Bolshie Kopeny

Today, 20 June, Sunday

Time Temperature Precipitation Wind Pressure Humidity
00:00 +18°C° 0 mm 1 mps 757 mmHg 71%
01:00 +16°C° 0 mm 1 mps 757 mmHg 71%
02:00 +16°C° 0 mm 1 mps 757 mmHg 72%
03:00 +16°C° 0 mm 1 mps 757 mmHg 73%
04:00 +17°C° 0 mm 2 mps 757 mmHg 72%
05:00 +18°C° 0 mm 2 mps 757 mmHg 72%
06:00 +19°C° 0 mm 2 mps 757 mmHg 71%
07:00 +21°C° 0 mm 2 mps 757 mmHg 66%
08:00 +24°C° 0 mm 2 mps 757 mmHg 60%
09:00 +25°C° 0 mm 3 mps 757 mmHg 54%
10:00 +26°C° 0 mm 3 mps 757 mmHg 51%
11:00 +27°C° 0 mm 3 mps 757 mmHg 47%
12:00 +28°C° 0 mm 3 mps 756 mmHg 44%
13:00 +29°C° 0 mm 3 mps 756 mmHg 43%
14:00 +29°C° 0 mm 3 mps 756 mmHg 43%
15:00 +29°C° 0 mm 3 mps 756 mmHg 42%
16:00 +29°C° 0 mm 2 mps 756 mmHg 47%
17:00 +28°C° 0 mm 2 mps 755 mmHg 52%
18:00 +28°C° 0 mm 2 mps 755 mmHg 58%
19:00 +26°C° 0 mm 2 mps 755 mmHg 59%
20:00 +24°C° 0 mm 2 mps 755 mmHg 60%
21:00 +21°C° 0 mm 2 mps 755 mmHg 61%
22:00 +21°C° 0 mm 2 mps 755 mmHg 62%
23:00 +20°C° 0 mm 2 mps 755 mmHg 62%

Tomorrow, 21 June, Monday

Time Temperature Precipitation Wind Pressure Humidity
00:00 +20°C° 0 mm 2 mps 755 mmHg 62%
01:00 +20°C° 0 mm 2 mps 755 mmHg 65%
02:00 +19°C° 0 mm 2 mps 755 mmHg 68%
03:00 +19°C° 0 mm 2 mps 755 mmHg 71%
04:00 +20°C° 0 mm 2 mps 755 mmHg 72%
05:00 +21°C° 0 mm 2 mps 755 mmHg 74%
06:00 +21°C° 0 mm 2 mps 756 mmHg 75%
07:00 +24°C° 0 mm 3 mps 756 mmHg 69%
08:00 +26°C° 0 mm 3 mps 756 mmHg 63%
09:00 +28°C° 0 mm 4 mps 756 mmHg 57%
10:00 +29°C° 0 mm 4 mps 756 mmHg 54%
11:00 +30°C° 0 mm 4 mps 756 mmHg 51%
12:00 +30°C° 0 mm 3 mps 756 mmHg 48%
13:00 +31°C° 0 mm 3 mps 756 mmHg 47%
14:00 +31°C° 0 mm 3 mps 755 mmHg 45%
15:00 +31°C° 0 mm 3 mps 755 mmHg 44%
16:00 +31°C° 0 mm 3 mps 755 mmHg 50%
17:00 +30°C° 0 mm 2 mps 755 mmHg 55%
18:00 +29°C° 0 mm 2 mps 755 mmHg 61%
19:00 +27°C° 0 mm 2 mps 755 mmHg 62%
20:00 +26°C° 0 mm 2 mps 755 mmHg 64%
21:00 +24°C° 0 mm 2 mps 755 mmHg 66%
22:00 +23°C° 0 mm 2 mps 755 mmHg 68%
23:00 +23°C° 0 mm 2 mps 755 mmHg 70%

Day after tomorrow, 22 June, Tuesday

Time Temperature Precipitation Wind Pressure Humidity
00:00 +21°C° 0 mm 2 mps 755 mmHg 72%
01:00 +21°C° 0 mm 3 mps 755 mmHg 74%
02:00 +21°C° 0 mm 3 mps 755 mmHg 76%
03:00 +20°C° 0 mm 3 mps 755 mmHg 78%
04:00 +21°C° 0 mm 3 mps 755 mmHg 77%
05:00 +22°C° 0 mm 3 mps 755 mmHg 77%
06:00 +24°C° 0 mm 2 mps 755 mmHg 77%
07:00 +26°C° 0 mm 3 mps 755 mmHg 71%
08:00 +27°C° 0 mm 3 mps 755 mmHg 65%
09:00 +29°C° 0 mm 4 mps 755 mmHg 60%
10:00 +30°C° 0 mm 4 mps 755 mmHg 56%
11:00 +32°C° 0 mm 4 mps 755 mmHg 52%
12:00 +33°C° 0 mm 3 mps 755 mmHg 48%
13:00 +33°C° 0 mm 3 mps 755 mmHg 45%
14:00 +34°C° 0 mm 3 mps 755 mmHg 42%
15:00 +34°C° 0 mm 3 mps 755 mmHg 39%
16:00 +34°C° 0 mm 3 mps 755 mmHg 44%
17:00 +33°C° 0 mm 3 mps 754 mmHg 50%
18:00 +31°C° 0 mm 3 mps 754 mmHg 55%
19:00 +30°C° 0 mm 3 mps 754 mmHg 56%
20:00 +28°C° 0 mm 3 mps 754 mmHg 57%
21:00 +26°C° 0 mm 3 mps 754 mmHg 58%
22:00 +25°C° 0 mm 3 mps 754 mmHg 59%
23:00 +25°C° 0 mm 2 mps 754 mmHg 60%

23 June, Wednesday

Time Temperature Precipitation Wind Pressure Humidity
00:00 +24°C° 0 mm 2 mps 754 mmHg 61%
01:00 +24°C° 0 mm 2 mps 754 mmHg 61%
02:00 +24°C° 0 mm 2 mps 754 mmHg 62%
03:00 +23°C° 0 mm 2 mps 754 mmHg 62%
04:00 +24°C° 0 mm 2 mps 755 mmHg 64%
05:00 +24°C° 0 mm 2 mps 755 mmHg 66%
06:00 +25°C° 0 mm 2 mps 755 mmHg 69%
07:00 +27°C° 0 mm 3 mps 755 mmHg 62%
08:00 +29°C° 0 mm 3 mps 755 mmHg 55%
09:00 +31°C° 0 mm 3 mps 755 mmHg 49%
10:00 +31°C° 0 mm 3 mps 755 mmHg 45%
11:00 +33°C° 0 mm 4 mps 755 mmHg 42%
12:00 +34°C° 0 mm 4 mps 755 mmHg 38%
13:00 +35°C° 0 mm 3 mps 755 mmHg 38%
14:00 +35°C° 0 mm 3 mps 755 mmHg 37%
15:00 +35°C° 0 mm 3 mps 755 mmHg 36%
16:00 +34°C° 0 mm 3 mps 755 mmHg 42%
17:00 +34°C° 0 mm 2 mps 754 mmHg 49%
18:00 +32°C° 0 mm 2 mps 754 mmHg 55%
19:00 +30°C° 0 mm 2 mps 754 mmHg 56%
20:00 +28°C° 0 mm 2 mps 754 mmHg 57%
21:00 +27°C° 0 mm 2 mps 754 mmHg 58%
22:00 +26°C° 0 mm 2 mps 754 mmHg 59%
23:00 +26°C° 0 mm 2 mps 754 mmHg 59%

24 June, Thursday

Time Temperature Precipitation Wind Pressure Humidity
00:00 +25°C° 0 mm 2 mps 754 mmHg 60%
01:00 +25°C° 0 mm 2 mps 754 mmHg 62%
02:00 +24°C° 0 mm 2 mps 754 mmHg 64%
03:00 +24°C° 0 mm 2 mps 754 mmHg 66%
04:00 +25°C° 0 mm 2 mps 754 mmHg 67%
05:00 +25°C° 0 mm 2 mps 754 mmHg 69%
06:00 +26°C° 0 mm 2 mps 754 mmHg 70%
07:00 +28°C° 0 mm 2 mps 754 mmHg 64%
08:00 +29°C° 0 mm 2 mps 754 mmHg 58%
09:00 +31°C° 0 mm 2 mps 754 mmHg 53%
10:00 +32°C° 0 mm 2 mps 754 mmHg 49%
11:00 +34°C° 0 mm 2 mps 754 mmHg 45%
12:00 +35°C° 0 mm 2 mps 754 mmHg 41%
13:00 +35°C° 0 mm 2 mps 754 mmHg 39%
14:00 +35°C° 0 mm 2 mps 753 mmHg 38%
15:00 +36°C° 0 mm 2 mps 753 mmHg 36%
16:00 +35°C° 0 mm 2 mps 753 mmHg 41%
17:00 +34°C° 0 mm 2 mps 753 mmHg 46%
18:00 +34°C° 0 mm 2 mps 753 mmHg 52%
19:00 +31°C° 0 mm 2 mps 753 mmHg 56%
20:00 +28°C° 0 mm 2 mps 752 mmHg 61%
21:00 +26°C° 0 mm 2 mps 752 mmHg 66%
22:00 +25°C° 0 mm 2 mps 752 mmHg 67%
23:00 +25°C° 0 mm 2 mps 752 mmHg 68%

25 June, Friday

Time Temperature Precipitation Wind Pressure Humidity
00:00 +24°C° 0 mm 2 mps 752 mmHg 69%
01:00 +24°C° 0 mm 2 mps 752 mmHg 70%
02:00 +24°C° 0 mm 2 mps 752 mmHg 71%
03:00 +23°C° 0 mm 2 mps 752 mmHg 71%
04:00 +24°C° 0 mm 2 mps 752 mmHg 70%
05:00 +25°C° 0 mm 1 mps 752 mmHg 70%
06:00 +26°C° 0 mm 1 mps 752 mmHg 69%
07:00 +28°C° 0 mm 1 mps 752 mmHg 64%
08:00 +29°C° 0 mm 2 mps 752 mmHg 59%
09:00 +31°C° 0 mm 2 mps 751 mmHg 54%
10:00 +32°C° 0 mm 2 mps 751 mmHg 51%
11:00 +34°C° 0 mm 2 mps 751 mmHg 47%
12:00 +35°C° 0 mm 2 mps 751 mmHg 44%
13:00 +35°C° 0 mm 2 mps 751 mmHg 42%
14:00 +35°C° 0 mm 2 mps 751 mmHg 41%
15:00 +35°C° 0 mm 2 mps 750 mmHg 39%
16:00 +35°C° 0 mm 2 mps 750 mmHg 43%
17:00 +34°C° 0 mm 2 mps 750 mmHg 47%
18:00 +34°C° 0 mm 2 mps 750 mmHg 52%
19:00 +31°C° 0 mm 2 mps 750 mmHg 54%
20:00 +29°C° 0 mm 2 mps 750 mmHg 56%
21:00 +27°C° 0 mm 2 mps 750 mmHg 59%
22:00 +27°C° 0 mm 2 mps 749 mmHg 60%
23:00 +26°C° 0 mm 1 mps 749 mmHg 62%
Show more